Regional Weather Roundup
Issued by NWS

Home | Current Version | Previous Version | Graphics & Text | Print | Product List | Glossary On
Versions: 1 2 3 4 5 6 7 8 9 10 11 12 13 14 15 16 17 18 19 20 21 22 23 24 25 26 27 28 29 30 31 32 33 34 35 36 37 38 39 40 41 42 43 44 45 46 47 48 49 50
000
ASUS43 KMKX 202210
RWRWI

WISCONSIN REGIONAL WEATHER ROUNDUP
NATIONAL WEATHER SERVICE MILWAUKEE/SULLIVAN WI
500 PM CDT FRI APR 20 2018

NOTE: "FAIR" INDICATES FEW OR NO CLOUDS BELOW 12,000 FEET WITH NO
SIGNIFICANT WEATHER AND/OR OBSTRUCTIONS TO VISIBILITY.

WIZ001-002-006>008-014>016-023>028-202300-
NORTHWEST WISCONSIN

CITY           SKY/WX    TMP DP  RH WIND       PRES   REMARKS
SUPERIOR ARPT  FAIR      59  23  25 W8        30.38F
ASHLAND        FAIR      58  12  16 CALM      30.39F
HAYWARD        FAIR      55  17  22 CALM      30.40F
SIREN          FAIR      53  17  24 W3        30.42S
CUMBERLAND     FAIR      45  18  33 CALM      30.42S
RICE LAKE      FAIR      51  18  26 CALM      30.43F
CHETEK         FAIR      53  23  31 CALM      30.42S
LADYSMITH      FAIR      54  17  23 SW7       30.43S
EAU CLAIRE     FAIR      54  16  22 W9        30.42F
MENOMONIE      FAIR      55  17  23 S5        30.43S
NEW RICHMOND   FAIR      52  23  32 CALM      30.42F
OSCEOLA        FAIR      53  21  28 S3        30.45F
$$

WIZ003>005-009-010-017-018-202300-
NORTH CENTRAL WISCONSIN

CITY           SKY/WX    TMP DP  RH WIND       PRES   REMARKS
MANITOWISH WTR FAIR      53  13  20 S5        30.38S
ARBOR VITAE    FAIR      57  10  15 W7        30.38S
WOODRUFF       FAIR      57  10  15 W7        30.38S
RHINELANDER    FAIR      55   8  15 VRB3      30.39F
EAGLE RIVER    FAIR      54   5  14 CALM      30.37F
LAND O LAKES   FAIR      57   4  12 SW3       30.38F
PHILLIPS       FAIR      53  12  19 SW6       30.39F
TOMAHAWK       FAIR      55   9  16 W5        30.40S
MEDFORD        FAIR      48  21  34 S3        30.42F
MERRILL          N/A     51  12  21 SW9       30.42F
$$

WIZ029-030-035-036-043>047-202300-
CENTRAL WISCONSIN

CITY           SKY/WX    TMP DP  RH WIND       PRES   REMARKS
WAUSAU         FAIR      51  15  23 W6        30.41F
MOSINEE        PTSUNNY   52  14  22 W3        30.43F
MARSHFIELD     FAIR      52  16  24 SE3       30.41F
STEVENS POINT  FAIR      51  13  22 SE6       30.43F
WAUPACA        FAIR      56  12  17 SE8       30.44S
WAUTOMA        FAIR      55  14  19 SW3       30.43F
WISC RAPIDS    FAIR      54  10  17 SW8       30.43F
CAMP DOUGLAS   FAIR      54  13  19 CALM      30.41F
$$

WIZ011>013-019>022-031-037>040-048>050-202300-
NORTHEAST WISCONSIN

CITY           SKY/WX    TMP DP  RH WIND       PRES   REMARKS
ANTIGO         FAIR      47  18  30 SW10      30.41F
SHAWANO        FAIR      58  11  16 SW8       30.42S
OCONTO         FAIR      53  14  21 S7        30.42F
STURGEON BAY   FAIR      51  19  28 S7        30.44F
GREEN BAY      FAIR      49  17  28 S8        30.45F
MANITOWOC      FAIR      50  23  34 S9        30.46F
APPLETON       MOSUNNY   52  18  25 S7        30.44S
CLINTONVILLE   FAIR      53  13  20 S9        30.43S
OSHKOSH        FAIR      47  26  44 S5        30.45F
$$

WIZ032>034-041-042-053>061-202300-
SOUTHWEST WISCONSIN

CITY           SKY/WX    TMP DP  RH WIND       PRES   REMARKS
LA CROSSE      FAIR      56  21  25 SW8       30.42F
SPARTA         FAIR      55  12  18 S5        30.43F
VIROQUA        FAIR      51  27  38 SW3       30.41F
BOSCOBEL       FAIR      60  24  25 CALM      30.41F
PRAIRIE DU CHI FAIR      57  25  28 CALM      30.40F
PLATTEVILLE    FAIR      58  27  31 SE5       30.41F
$$

WIZ056-057-062-063-064-067-068-202300-
SOUTH CENTRAL WISCONSIN

CITY           SKY/WX    TMP DP  RH WIND       PRES   REMARKS
REEDSBURG      FAIR      53  16  23 CALM      30.42F
BARABOO/DELLS  FAIR      56  10  16 CALM      30.43F
LONE ROCK      FAIR      59  21  23 VRB3      30.41F
MINERAL POINT  FAIR      59  19  21 SW3       30.41F
MADISON        PTSUNNY   55  25  31 NE12      30.43F
MIDDLETON      FAIR      59  24  25 N3        30.42F
WATERTOWN      FAIR      53  21  28 E5        30.45F
MONROE         FAIR      57  18  21 S8        30.42S
JANESVILLE     MOSUNNY   61  10  13 CALM      30.42F
$$

WIZ051-052-058>065-066-070>072-202300-
SOUTHEAST WISCONSIN

CITY           SKY/WX    TMP DP  RH WIND       PRES   REMARKS
MILWAUKEE      PTSUNNY   51  27  39 SE9       30.46F
WAUKESHA       SUNNY     54  12  19 NW5       30.47F
MILWAUKEE/TIMM SUNNY     55   9  15 NW6       30.46F
RACINE         FAIR      51  22  31 SE7       30.48F
BURLINGTON     FAIR      57   9  15 NE3       30.45F
KENOSHA        FAIR      54  25  32 E8        30.45F
FOND DU LAC    FAIR      51  16  24 S5        30.45F
SHEBOYGAN      FAIR      51  29  42 S7        30.46F
WEST BEND      FAIR      54  10  17 SW7       30.45S
JUNEAU         FAIR      51  15  24 CALM      30.46F
$$

LSZ147-162-202300-
LAKE SUPERIOR

STATION/POSITION TIME  TEMP    WIND        PRES    WAVE
                       AIR SEA DIR/SP/G            HT/PER
                 (UTC) (F)     (DEG/KT/KT) (MB)    (FT/S)
DEVILS ISLAND    2200   52      CALM  /  1 1029.6R
SAXON HARBOR     2130   39     320/  3/  5 1028.8S
$$

LMZ867-665-643>646-202300-
LAKE MICHIGAN

STATION/POSITION TIME  TEMP    WIND        PRES    WAVE
                       AIR SEA DIR/SP/G            HT/PER
                 (UTC) (F)     (DEG/KT/KT) (MB)    (FT/S)
NORTHPORT PIER   2140   50                 1030.1S
KEWAUNEE LAKESHO 2142   42     180/ 11/ 12 1030.3F
SHEBOYGAN LAKESH 2200   44     170/ 13/ 13 1031.9F
PORT WASHINGTON  2140   44     170/  3/  3 1032.5F
MILWAUKEE LAKESH 2150   39     130/  3/  4   N/A
KENOSHA   LAKESH 2200   45                 1031.5
$$

TC  - TEMPERATURE IN CELSIUS
VSB - VISIBILITY IN STATUTE MILES
WCI - WIND CHILL INDEX
HX  - HEAT INDEX





USA.gov is the U.S. government's official web portal to all federal, state and local government web resources and services.